EWG40P EDDH-ESSA

Flight info

Callsign EWG40P
Flight time 1h 18m
Altitude 37000
Route LUGEG3C/05 LUGEG P605 MEGAR DCT KUBIS DCT MIKNA N851 PELUP Z226 NILUG
Aircraft A319/M-SDE3FGHIRWY/LB1

Departure

Time 2026-05-07 13:12
Airport Hamburg Helmut Schmidt Airport (EDDH)

Arrival

Time 2026-05-07 14:30
Airport Stockholm-Arlanda Airport (ESSA)
Time Latitude Longitude Altitude Speed Heading
2026-05-07 12:47 53.62844 10.00216 49 ft 0 kts 62°
2026-05-07 13:02 53.62842 10.00210 48 ft 3 kts 62°
2026-05-07 13:02 53.62829 10.00171 45 ft 4 kts 55°
2026-05-07 13:02 53.62812 10.00136 47 ft 4 kts 38°
2026-05-07 13:03 53.62791 10.00120 46 ft 4 kts 343°
2026-05-07 13:03 53.62782 10.00126 46 ft 1 kts 333°
2026-05-07 13:06 53.62805 10.00106 45 ft 6 kts 333°
2026-05-07 13:06 53.62832 10.00038 48 ft 8 kts 274°
2026-05-07 13:07 53.62821 9.99990 46 ft 0 kts 234°
2026-05-07 13:07 53.62812 9.99973 46 ft 5 kts 223°
2026-05-07 13:08 53.62767 9.99927 45 ft 10 kts 210°
2026-05-07 13:08 53.62688 9.99858 46 ft 15 kts 208°
2026-05-07 13:08 53.62632 9.99712 47 ft 16 kts 261°
2026-05-07 13:08 53.62610 9.99523 47 ft 17 kts 258°
2026-05-07 13:09 53.62595 9.99389 47 ft 18 kts 259°
2026-05-07 13:09 53.62564 9.99106 44 ft 16 kts 259°
2026-05-07 13:09 53.62543 9.98921 47 ft 13 kts 259°
2026-05-07 13:09 53.62526 9.98768 47 ft 14 kts 259°
2026-05-07 13:10 53.62513 9.98657 47 ft 15 kts 259°
2026-05-07 13:10 53.62492 9.98474 45 ft 17 kts 258°
2026-05-07 13:10 53.62468 9.98272 47 ft 18 kts 258°
2026-05-07 13:10 53.62418 9.98073 47 ft 16 kts 236°
2026-05-07 13:11 53.62345 9.97921 47 ft 18 kts 230°
2026-05-07 13:11 53.62257 9.97740 47 ft 21 kts 230°
2026-05-07 13:11 53.62178 9.97537 47 ft 18 kts 261°
2026-05-07 13:11 53.62243 9.97363 41 ft 22 kts 336°
2026-05-07 13:12 53.62376 9.97479 40 ft 30 kts 51°
2026-05-07 13:12 53.62645 9.98025 42 ft 93 kts 50°
2026-05-07 13:12 53.63174 9.99101 127 ft 135 kts 51°
2026-05-07 13:12 53.63748 10.00266 708 ft 129 kts 52°
2026-05-07 13:13 53.64308 10.01447 1297 ft 129 kts 53°
2026-05-07 13:13 53.64864 10.02633 1879 ft 127 kts 52°
2026-05-07 13:13 53.65423 10.03809 2310 ft 130 kts 52°
2026-05-07 13:13 53.65991 10.05008 2753 ft 132 kts 52°
2026-05-07 13:14 53.66562 10.06214 3214 ft 134 kts 52°
2026-05-07 13:14 53.67183 10.07528 3506 ft 154 kts 53°
2026-05-07 13:14 53.67901 10.09048 3813 ft 177 kts 53°
2026-05-07 13:14 53.68719 10.10779 4120 ft 200 kts 53°
2026-05-07 13:15 53.69620 10.12684 4725 ft 211 kts 53°
2026-05-07 13:15 53.70542 10.14628 5653 ft 212 kts 52°
2026-05-07 13:15 53.71468 10.16581 6553 ft 215 kts 52°
2026-05-07 13:15 53.72428 10.18661 7007 ft 238 kts 53°
2026-05-07 13:16 53.73487 10.20997 7517 ft 259 kts 53°
2026-05-07 13:16 53.74598 10.23450 8323 ft 266 kts 53°
2026-05-07 13:16 53.75726 10.25942 9151 ft 273 kts 53°
2026-05-07 13:16 53.76899 10.28534 9952 ft 281 kts 53°
2026-05-07 13:17 53.78121 10.31237 10422 ft 300 kts 53°
2026-05-07 13:17 53.79433 10.34147 10735 ft 321 kts 52°
2026-05-07 13:17 53.80812 10.37205 11341 ft 330 kts 52°
2026-05-07 13:17 53.82217 10.40321 12063 ft 335 kts 52°
2026-05-07 13:18 53.83644 10.43481 12803 ft 340 kts 52°
2026-05-07 13:18 53.85070 10.46649 13528 ft 345 kts 52°
2026-05-07 13:18 53.86536 10.49916 14204 ft 349 kts 52°
2026-05-07 13:18 53.88011 10.53206 14845 ft 353 kts 52°
2026-05-07 13:19 53.89510 10.56555 15496 ft 357 kts 52°
2026-05-07 13:19 53.91017 10.59928 16144 ft 361 kts 52°
2026-05-07 13:19 53.92545 10.63346 16756 ft 366 kts 52°
2026-05-07 13:19 53.94113 10.66795 17366 ft 370 kts 49°
2026-05-07 13:20 53.95844 10.69981 17988 ft 374 kts 45°
2026-05-07 13:20 53.97637 10.73229 18565 ft 379 kts 45°
2026-05-07 13:20 53.99449 10.76518 19138 ft 382 kts 46°
2026-05-07 13:20 54.01273 10.79837 19661 ft 387 kts 46°
2026-05-07 13:21 54.03120 10.83202 20256 ft 389 kts 46°
2026-05-07 13:21 54.04981 10.86596 20800 ft 394 kts 46°
2026-05-07 13:21 54.06856 10.90021 21346 ft 397 kts 46°
2026-05-07 13:21 54.08722 10.93444 21901 ft 400 kts 46°
2026-05-07 13:22 54.10630 10.96949 22414 ft 404 kts 46°
2026-05-07 13:22 54.12553 11.00488 22977 ft 407 kts 46°
2026-05-07 13:22 54.14486 11.04055 23492 ft 411 kts 46°
2026-05-07 13:22 54.16438 11.07671 23965 ft 414 kts 47°
2026-05-07 13:23 54.18368 11.11261 24376 ft 417 kts 47°
2026-05-07 13:23 54.20341 11.14939 24841 ft 419 kts 47°
2026-05-07 13:23 54.22314 11.18623 25265 ft 422 kts 47°
2026-05-07 13:23 54.24299 11.22333 25746 ft 423 kts 47°
2026-05-07 13:24 54.26293 11.26064 26191 ft 425 kts 47°
2026-05-07 13:24 54.28266 11.29761 26626 ft 427 kts 47°
2026-05-07 13:24 54.30270 11.33531 27051 ft 429 kts 47°
2026-05-07 13:24 54.32289 11.37339 27480 ft 432 kts 47°
2026-05-07 13:25 54.34309 11.41162 27902 ft 434 kts 47°
2026-05-07 13:25 54.36346 11.45013 28332 ft 436 kts 47°
2026-05-07 13:25 54.38393 11.48876 28756 ft 438 kts 47°
2026-05-07 13:25 54.40453 11.52760 29167 ft 441 kts 47°
2026-05-07 13:26 54.42519 11.56661 29581 ft 443 kts 47°
2026-05-07 13:26 54.44598 11.60589 29963 ft 446 kts 47°
2026-05-07 13:26 54.46808 11.64349 30342 ft 446 kts 39°
2026-05-07 13:26 54.49273 11.67474 30672 ft 447 kts 31°
2026-05-07 13:27 54.51914 11.70315 31014 ft 448 kts 31°
2026-05-07 13:27 54.54572 11.73182 31335 ft 450 kts 31°
2026-05-07 13:27 54.57233 11.76066 31645 ft 452 kts 31°
2026-05-07 13:27 54.59892 11.78958 32010 ft 452 kts 31°
2026-05-07 13:28 54.62548 11.81857 32466 ft 450 kts 31°
2026-05-07 13:28 54.65159 11.84714 32905 ft 448 kts 31°
2026-05-07 13:28 54.67793 11.87601 33363 ft 447 kts 31°
2026-05-07 13:28 54.70415 11.90474 33868 ft 444 kts 32°
2026-05-07 13:29 54.73023 11.93331 34346 ft 441 kts 32°
2026-05-07 13:29 54.75616 11.96169 34693 ft 441 kts 32°
2026-05-07 13:29 54.78185 11.98986 34977 ft 442 kts 32°
2026-05-07 13:29 54.80788 12.01846 35164 ft 445 kts 32°
2026-05-07 13:30 54.83418 12.04745 35343 ft 448 kts 32°
2026-05-07 13:30 54.86062 12.07663 35588 ft 450 kts 32°
2026-05-07 13:30 54.88710 12.10588 35839 ft 451 kts 32°
2026-05-07 13:30 54.91365 12.13529 36093 ft 452 kts 32°
2026-05-07 13:31 54.93999 12.16452 36363 ft 452 kts 32°
2026-05-07 13:31 54.96662 12.19409 36628 ft 453 kts 32°
2026-05-07 13:31 54.99327 12.22375 36860 ft 454 kts 32°
2026-05-07 13:31 55.01986 12.25339 37062 ft 455 kts 32°
2026-05-07 13:32 55.07313 12.31298 37111 ft 456 kts 32°
2026-05-07 13:32 55.12654 12.37296 37111 ft 456 kts 32°
2026-05-07 13:33 55.17999 12.43297 37111 ft 455 kts 32°
2026-05-07 13:33 55.23296 12.49282 37113 ft 455 kts 32°
2026-05-07 13:34 55.31208 12.58576 37115 ft 455 kts 33°
2026-05-07 13:35 55.36419 12.64802 37107 ft 455 kts 33°
2026-05-07 13:35 55.41678 12.71046 37108 ft 455 kts 33°
2026-05-07 13:36 55.46943 12.77293 37107 ft 455 kts 33°
2026-05-07 13:36 55.52166 12.83525 37109 ft 455 kts 33°
2026-05-07 13:37 55.57427 12.89837 37116 ft 455 kts 33°
2026-05-07 13:37 55.62642 12.96121 37112 ft 456 kts 33°
2026-05-07 13:38 55.67888 13.02443 37103 ft 456 kts 33°
2026-05-07 13:38 55.73151 13.08803 37098 ft 457 kts 33°
2026-05-07 13:39 55.78418 13.15182 37096 ft 458 kts 33°
2026-05-07 13:39 55.83648 13.21550 37099 ft 458 kts 33°
2026-05-07 13:40 55.88909 13.27985 37117 ft 458 kts 33°
2026-05-07 13:40 55.94157 13.34418 37119 ft 458 kts 33°
2026-05-07 13:41 55.99375 13.40842 37117 ft 457 kts 33°
2026-05-07 13:41 56.04621 13.47318 37115 ft 457 kts 33°
2026-05-07 13:42 56.09836 13.53772 37112 ft 457 kts 33°
2026-05-07 13:42 56.15084 13.60290 37109 ft 457 kts 33°
2026-05-07 13:43 56.20285 13.66779 37101 ft 457 kts 33°
2026-05-07 13:43 56.25507 13.73320 37174 ft 456 kts 33°
2026-05-07 13:43 56.28107 13.76589 37444 ft 455 kts 33°
2026-05-07 13:44 56.30678 13.79822 37709 ft 454 kts 33°
2026-05-07 13:44 56.33267 13.83076 37966 ft 454 kts 33°
2026-05-07 13:44 56.35867 13.86344 38072 ft 458 kts 33°
2026-05-07 13:45 56.41132 13.92985 38070 ft 462 kts 33°
2026-05-07 13:45 56.46412 13.99674 37793 ft 463 kts 33°
2026-05-07 13:45 56.49014 14.02983 37276 ft 463 kts 33°
2026-05-07 13:46 56.51644 14.06339 37031 ft 461 kts 33°
2026-05-07 13:46 56.56873 14.13029 37065 ft 460 kts 33°
2026-05-07 13:47 56.62112 14.19735 37068 ft 459 kts 33°
2026-05-07 13:47 56.67301 14.26413 37068 ft 459 kts 33°
2026-05-07 13:48 56.72520 14.33145 37066 ft 459 kts 33°
2026-05-07 13:48 56.77747 14.39904 37060 ft 459 kts 33°
2026-05-07 13:49 56.82929 14.46632 37075 ft 460 kts 33°
2026-05-07 13:49 56.88142 14.53427 37069 ft 460 kts 33°
2026-05-07 13:50 56.93359 14.60250 37064 ft 460 kts 33°
2026-05-07 13:50 56.98533 14.67057 37067 ft 460 kts 33°
2026-05-07 13:51 57.03749 14.73942 37070 ft 460 kts 33°
2026-05-07 13:51 57.08950 14.80812 37076 ft 460 kts 33°
2026-05-07 13:52 57.14123 14.87674 37071 ft 460 kts 33°
2026-05-07 13:52 57.19323 14.94584 37069 ft 460 kts 33°
2026-05-07 13:53 57.24527 15.01540 37062 ft 460 kts 33°
2026-05-07 13:53 57.29686 15.08457 37074 ft 461 kts 33°
2026-05-07 13:54 57.34891 15.15454 37064 ft 462 kts 33°
2026-05-07 13:54 57.40089 15.22486 37060 ft 462 kts 33°
2026-05-07 13:55 57.45261 15.29502 37059 ft 463 kts 33°
2026-05-07 13:55 57.50467 15.36565 37060 ft 463 kts 33°
2026-05-07 13:56 57.55664 15.43657 37073 ft 463 kts 33°
2026-05-07 13:56 57.59989 15.49591 37063 ft 464 kts 33°
2026-05-07 13:57 57.66039 15.57906 37061 ft 464 kts 33°
2026-05-07 13:57 57.70356 15.63874 37062 ft 464 kts 33°
2026-05-07 13:58 57.75560 15.71062 37073 ft 464 kts 33°
2026-05-07 13:58 57.80765 15.78307 37074 ft 465 kts 33°
2026-05-07 13:59 57.85964 15.85566 37075 ft 465 kts 33°
2026-05-07 13:59 57.91119 15.92805 37076 ft 465 kts 34°
2026-05-07 14:00 57.95947 16.00728 37148 ft 461 kts 36°
2026-05-07 14:00 57.98482 16.04432 37047 ft 459 kts 33°
2026-05-07 14:00 58.01054 16.08007 37054 ft 459 kts 33°
2026-05-07 14:01 58.06172 16.15155 36941 ft 461 kts 34°
2026-05-07 14:01 58.08729 16.18861 36364 ft 464 kts 34°
2026-05-07 14:01 58.11266 16.22637 35820 ft 464 kts 35°
2026-05-07 14:01 58.13784 16.26447 35305 ft 463 kts 35°
2026-05-07 14:02 58.16291 16.30264 34868 ft 459 kts 35°
2026-05-07 14:02 58.18772 16.34045 34501 ft 454 kts 35°
2026-05-07 14:02 58.21224 16.37774 34138 ft 449 kts 34°
2026-05-07 14:02 58.23621 16.41410 33711 ft 444 kts 34°
2026-05-07 14:03 58.26025 16.45053 33290 ft 440 kts 34°
2026-05-07 14:03 58.28421 16.48681 32782 ft 437 kts 34°
2026-05-07 14:03 58.30798 16.52275 32373 ft 434 kts 34°
2026-05-07 14:03 58.33137 16.55815 32113 ft 434 kts 34°
2026-05-07 14:04 58.35495 16.59390 31864 ft 432 kts 34°
2026-05-07 14:04 58.37845 16.62965 31596 ft 431 kts 34°
2026-05-07 14:04 58.40187 16.66537 31346 ft 429 kts 34°
2026-05-07 14:04 58.42513 16.70098 31096 ft 427 kts 34°
2026-05-07 14:05 58.44827 16.73651 30845 ft 426 kts 34°
2026-05-07 14:05 58.47103 16.77148 30592 ft 424 kts 34°
2026-05-07 14:05 58.49399 16.80685 30349 ft 423 kts 34°
2026-05-07 14:05 58.51692 16.84227 30128 ft 422 kts 33°
2026-05-07 14:06 58.53976 16.87759 29800 ft 421 kts 33°
2026-05-07 14:06 58.56270 16.91307 28978 ft 425 kts 34°
2026-05-07 14:06 58.58553 16.94842 28567 ft 419 kts 34°
2026-05-07 14:06 58.60785 16.98307 28119 ft 416 kts 34°
2026-05-07 14:07 58.63021 17.01789 27690 ft 412 kts 34°
2026-05-07 14:07 58.65237 17.05242 27257 ft 409 kts 34°
2026-05-07 14:07 58.67441 17.08676 26843 ft 406 kts 34°
2026-05-07 14:07 58.69627 17.12087 26431 ft 403 kts 34°
2026-05-07 14:08 58.71800 17.15482 26017 ft 401 kts 34°
2026-05-07 14:08 58.73958 17.18862 25630 ft 399 kts 34°
2026-05-07 14:08 58.76108 17.22236 25193 ft 397 kts 33°
2026-05-07 14:08 58.78244 17.25597 24763 ft 396 kts 34°
2026-05-07 14:09 58.80367 17.28947 24340 ft 394 kts 34°
2026-05-07 14:09 58.82459 17.32246 23912 ft 393 kts 34°
2026-05-07 14:09 58.84573 17.35585 23436 ft 392 kts 34°
2026-05-07 14:09 58.86674 17.38912 22979 ft 388 kts 34°
2026-05-07 14:10 58.88756 17.42218 22528 ft 385 kts 34°
2026-05-07 14:10 58.90816 17.45494 22090 ft 382 kts 34°
2026-05-07 14:10 58.92864 17.48748 21673 ft 378 kts 34°
2026-05-07 14:10 58.94970 17.51602 21263 ft 369 kts 25°
2026-05-07 14:11 58.97167 17.54139 20839 ft 366 kts 25°
2026-05-07 14:11 58.99350 17.56668 20439 ft 364 kts 25°
2026-05-07 14:11 59.01517 17.59185 20015 ft 362 kts 25°
2026-05-07 14:11 59.03673 17.61693 19609 ft 359 kts 25°
2026-05-07 14:12 59.05815 17.64186 19193 ft 357 kts 26°
2026-05-07 14:12 59.07944 17.66671 18782 ft 355 kts 26°
2026-05-07 14:12 59.10028 17.69108 18371 ft 353 kts 26°
2026-05-07 14:12 59.12136 17.71573 17929 ft 350 kts 26°
2026-05-07 14:13 59.14219 17.74020 17525 ft 347 kts 26°
2026-05-07 14:13 59.16251 17.76415 17129 ft 343 kts 26°
2026-05-07 14:13 59.18285 17.78809 16731 ft 340 kts 26°
2026-05-07 14:13 59.20312 17.81194 16334 ft 338 kts 26°
2026-05-07 14:14 59.22323 17.83560 15928 ft 335 kts 26°
2026-05-07 14:14 59.24315 17.85908 15548 ft 333 kts 26°
2026-05-07 14:14 59.26303 17.88256 15148 ft 340 kts 26°
2026-05-07 14:14 59.28350 17.90665 14724 ft 350 kts 26°
2026-05-07 14:15 59.30439 17.93137 14180 ft 350 kts 27°
2026-05-07 14:15 59.32519 17.95609 13691 ft 348 kts 27°
2026-05-07 14:15 59.34586 17.98071 13187 ft 345 kts 27°
2026-05-07 14:15 59.36628 18.00500 12693 ft 342 kts 27°
2026-05-07 14:16 59.38743 18.02462 12220 ft 331 kts 12°
2026-05-07 14:16 59.40938 18.03511 11738 ft 327 kts
2026-05-07 14:16 59.43151 18.04464 11255 ft 323 kts
2026-05-07 14:16 59.45339 18.05389 10648 ft 320 kts
2026-05-07 14:17 59.47503 18.06288 10055 ft 316 kts
2026-05-07 14:17 59.49648 18.07166 9481 ft 314 kts
2026-05-07 14:17 59.51765 18.08012 9217 ft 303 kts
2026-05-07 14:17 59.53785 18.08808 8958 ft 290 kts
2026-05-07 14:18 59.55744 18.09583 8502 ft 285 kts
2026-05-07 14:18 59.57658 18.10335 8284 ft 274 kts
2026-05-07 14:18 59.59468 18.11048 8072 ft 264 kts
2026-05-07 14:18 59.61255 18.11752 7700 ft 261 kts
2026-05-07 14:19 59.63032 18.12442 7302 ft 259 kts
2026-05-07 14:19 59.64797 18.13122 6898 ft 257 kts
2026-05-07 14:19 59.66551 18.13786 6541 ft 254 kts
2026-05-07 14:19 59.68245 18.14429 6411 ft 241 kts
2026-05-07 14:20 59.69865 18.15050 6158 ft 234 kts
2026-05-07 14:20 59.71463 18.15664 5777 ft 233 kts
2026-05-07 14:20 59.73031 18.16260 5392 ft 232 kts
2026-05-07 14:20 59.74581 18.16848 5213 ft 221 kts
2026-05-07 14:21 59.76069 18.17421 4963 ft 215 kts
2026-05-07 14:21 59.77536 18.17997 4637 ft 215 kts
2026-05-07 14:21 59.79001 18.18565 4335 ft 214 kts
2026-05-07 14:21 59.80466 18.19086 4033 ft 214 kts
2026-05-07 14:22 59.81932 18.19597 3761 ft 213 kts
2026-05-07 14:22 59.83390 18.20102 3487 ft 212 kts
2026-05-07 14:22 59.84846 18.20591 3207 ft 212 kts
2026-05-07 14:22 59.86283 18.21059 2931 ft 211 kts
2026-05-07 14:23 59.87735 18.21510 2646 ft 211 kts
2026-05-07 14:23 59.89173 18.21434 2511 ft 209 kts 339°
2026-05-07 14:23 59.90312 18.19737 2517 ft 208 kts 302°
2026-05-07 14:23 59.90711 18.17032 2510 ft 206 kts 265°
2026-05-07 14:24 59.90275 18.14332 2524 ft 207 kts 242°
2026-05-07 14:24 59.89561 18.11836 2511 ft 207 kts 238°
2026-05-07 14:24 59.88811 18.09376 2510 ft 208 kts 238°
2026-05-07 14:24 59.88061 18.06951 2515 ft 207 kts 238°
2026-05-07 14:25 59.87112 18.04816 2516 ft 207 kts 217°
2026-05-07 14:25 59.85819 18.03557 2518 ft 209 kts 195°
2026-05-07 14:25 59.84416 18.03024 2506 ft 198 kts 191°
2026-05-07 14:25 59.83078 18.02534 2511 ft 193 kts 191°
2026-05-07 14:26 59.81767 18.02052 2511 ft 191 kts 191°
2026-05-07 14:26 59.80465 18.01575 2511 ft 190 kts 192°
2026-05-07 14:26 59.79196 18.01110 2546 ft 182 kts 191°
2026-05-07 14:26 59.78001 18.00673 2506 ft 166 kts 191°
2026-05-07 14:27 59.76917 18.00276 2468 ft 152 kts 191°
2026-05-07 14:27 59.75907 17.99905 2325 ft 145 kts 191°
2026-05-07 14:27 59.74937 17.99551 2154 ft 142 kts 190°
2026-05-07 14:27 59.73973 17.99198 1972 ft 140 kts 190°
2026-05-07 14:28 59.73023 17.98851 1791 ft 138 kts 190°
2026-05-07 14:28 59.72077 17.98507 1602 ft 137 kts 190°
2026-05-07 14:28 59.71153 17.98169 1407 ft 134 kts 189°
2026-05-07 14:28 59.70234 17.97835 1224 ft 134 kts 189°
2026-05-07 14:29 59.69314 17.97500 1037 ft 133 kts 189°
2026-05-07 14:29 59.68395 17.97166 850 ft 134 kts 190°
2026-05-07 14:29 59.67474 17.96840 674 ft 135 kts 189°
2026-05-07 14:29 59.66543 17.96525 505 ft 135 kts 191°
2026-05-07 14:30 59.65613 17.96183 316 ft 135 kts 194°
2026-05-07 14:30 59.64688 17.95828 123 ft 134 kts 193°
2026-05-07 14:30 59.63878 17.95527 115 ft 99 kts 191°
2026-05-07 14:30 59.63430 17.95335 121 ft 33 kts 213°
2026-05-07 14:31 59.63280 17.95102 123 ft 21 kts 219°
2026-05-07 14:31 59.63251 17.94939 123 ft 13 kts 312°
2026-05-07 14:31 59.63345 17.94924 123 ft 16 kts 11°
2026-05-07 14:31 59.63474 17.94967 117 ft 21 kts
2026-05-07 14:32 59.63615 17.95020 114 ft 18 kts 12°
2026-05-07 14:32 59.63750 17.95068 111 ft 17 kts 12°
2026-05-07 14:32 59.63870 17.95114 110 ft 17 kts 10°
2026-05-07 14:32 59.63998 17.95158 109 ft 20 kts 11°
2026-05-07 14:33 59.64137 17.95211 107 ft 14 kts 11°
2026-05-07 14:33 59.64162 17.95220 107 ft 0 kts 11°
2026-05-07 14:33 59.64166 17.95222 107 ft 3 kts 11°
2026-05-07 14:34 59.64206 17.95235 107 ft 9 kts
2026-05-07 14:34 59.64223 17.95239 107 ft 0 kts
2026-05-07 14:36 59.64243 17.95237 106 ft 6 kts 355°
2026-05-07 14:36 59.64313 17.95193 105 ft 15 kts 332°
2026-05-07 14:36 59.64389 17.95022 104 ft 19 kts 294°
2026-05-07 14:37 59.64391 17.94756 103 ft 19 kts 251°
2026-05-07 14:37 59.64221 17.94201 104 ft 22 kts 238°
2026-05-07 14:37 59.64141 17.93953 109 ft 21 kts 238°
2026-05-07 14:38 59.64069 17.93726 112 ft 18 kts 237°
2026-05-07 14:38 59.64004 17.93514 112 ft 18 kts 239°
2026-05-07 14:38 59.63998 17.93265 111 ft 19 kts 284°
2026-05-07 14:38 59.64059 17.93027 112 ft 19 kts 297°
2026-05-07 14:39 59.64126 17.92778 111 ft 21 kts 295°
2026-05-07 14:39 59.64192 17.92525 115 ft 20 kts 298°
2026-05-07 14:39 59.64254 17.92290 115 ft 19 kts 297°
2026-05-07 14:39 59.64318 17.92050 114 ft 21 kts 297°
2026-05-07 14:40 59.64384 17.91923 111 ft 14 kts 358°
2026-05-07 14:40 59.64478 17.91956 111 ft 14 kts 11°
2026-05-07 14:40 59.64574 17.91991 110 ft 14 kts
2026-05-07 14:40 59.64672 17.92027 109 ft 14 kts 11°
2026-05-07 14:41 59.64747 17.92120 110 ft 12 kts 83°
2026-05-07 14:41 59.64728 17.92257 112 ft 9 kts 106°
2026-05-07 14:41 59.64710 17.92380 110 ft 9 kts 106°
2026-05-07 14:41 59.64705 17.92467 112 ft 4 kts 65°
2026-05-07 14:42 59.64725 17.92498 112 ft 3 kts 35°
2026-05-07 14:42 59.64741 17.92520 112 ft 1 kts 36°
2026-05-07 14:42 59.64744 17.92525 110 ft 0 kts 36°